[[{"header":{"parameterUnit":"m.s-1","parameterCategory":1,"la1":30.2992,"la2":30.254,"lo1":-89.0895,"lo2":-89.0443,"dy":0.0025,"dx":0.0025,"nx":19,"ny":19,"refTime":"2026-05-23T21:00:00:Z","depth":0,"parameterNumber":2,"parameterNumberName":"U-component_of_WINDS"},"data":[0,0,0,0.656,0.6559,0.6525,0.6525,0.6502,0.6502,0,0,0,0,0,0,0,0,0,0,0,0.6583,0.6583,0.656,0.6559,0.6525,0.6525,0.6502,0.6502,0,0,0,0,0,0,0,0,0,0,0,0.6583,0.6583,0.6583,0.6559,0.6525,0.6525,0.6502,0.6521,0,0,0,0,0,0,0,0,0,0,0.6551,0.6584,0.6583,0.6583,0.6559,0.6525,0.6524,0.6521,0.652,0.6527,0,0.6537,0,0.6519,0.6502,0.6502,0,0,0,0.655,0.6586,0.6565,0.6583,0.6559,0.6525,0.6538,0.652,0.6518,0.6525,0.6536,0.6535,0.6519,0.6502,0.6502,0.6574,0.6575,0,0,0.6552,0.6584,0.6566,0.6564,0.657,0.6539,0.6537,0.6519,0.6533,0.6536,0.6534,0.6519,0.6502,0.6502,0.6574,0.6574,0,0,0,0.6564,0.6585,0.6564,0.6566,0.6558,0.6538,0.6536,0.6534,0.6524,0.6534,0.6518,0.6502,0.6502,0.6573,0.6574,0.6642,0,0,0,0.6564,0.6592,0.6566,0.6585,0.6558,0.6545,0.6552,0.6526,0.6523,0.6518,0.6502,0.6502,0.6572,0.6573,0.6638,0.6669,0,0,0,0.6581,0.6594,0.6593,0.6587,0.6573,0.6545,0.6534,0.6524,0.6514,0.6502,0.6502,0.6571,0.6573,0.6635,0.6664,0.6697,0,0,0,0.6607,0.6655,0.6595,0.6642,0.6573,0.6587,0.6534,0.6543,0.6541,0.6502,0.6572,0.6574,0.6634,0.666,0.6694,0.6731,0.675,0,0,0.6686,0.6666,0.6691,0.6636,0.6668,0.659,0.6632,0.6601,0.6572,0.6575,0.6577,0.664,0.6663,0.6696,0.6842,0.6857,0,0,0,0.6727,0.6745,0.6747,0.6746,0.6723,0.6705,0.6664,0.6652,0.6653,0.658,0.666,0.6673,0.6691,0.6707,0.672,0.6733,0.6583,0.6582,0.6582,0.6884,0.6842,0.6881,0.6835,0.6835,0.6791,0.6787,0.6763,0.6723,0.6742,0.6743,0.6836,0.6857,0.6866,0.688,0.6759,0.676,0.676,0.676,0.6994,0.7014,0.6956,0.6974,0.6929,0.6944,0.6903,0.6873,0.688,0.6832,0.6846,0.6798,0.6883,0.6894,0.6765,0.6764,0.6763,0.6763,0.6762,0.7092,0.7094,0.7078,0.7071,0.7071,0.7023,0.7032,0.6992,0.6954,0.6968,0.6964,0.6963,0.6956,0.6968,0.6969,0.6969,0.6969,0.697,0.697,0.72,0.718,0.7192,0.717,0.7163,0.715,0.7105,0.7098,0.708,0.705,0.7049,0.7007,0.6899,0.6873,0.6975,0.6974,0.6973,0.6973,0.6972,0.7328,0.7292,0.7311,0.7304,0.7275,0.7277,0.7225,0.7213,0.7201,0.7207,0.716,0.7088,0.7065,0.7055,0.7033,0.7169,0.7169,0.7169,0.7169,0.7411,0.7395,0.7404,0.7396,0.7383,0.7338,0.736,0.7326,0.7286,0.7276,0.725,0.7217,0.7209,0.7191,0.7178,0.7157,0.7322,0.7322,0.7322,0.7487,0.7467,0.7494,0.7453,0.7426,0.7405,0.7425,0.7418,0.7365,0.7327,0.7267,0.726,0.7207,0.7192,0.7155,0.7135,0.7095,0,0]},{"header":{"parameterUnit":"m.s-1","parameterCategory":1,"la1":30.2992,"la2":30.254,"lo1":-89.0895,"lo2":-89.0443,"dy":0.0025,"dx":0.0025,"nx":19,"ny":19,"refTime":"2026-05-23T21:00:00:Z","depth":0,"parameterNumber":3,"parameterNumberName":"V-component_of_WINDS"},"data":[0,0,0,3.7272,3.7273,3.7318,3.7318,3.736,3.736,0,0,0,0,0,0,0,0,0,0,0,3.7253,3.7253,3.7272,3.7273,3.7318,3.7318,3.736,3.736,0,0,0,0,0,0,0,0,0,0,0,3.7252,3.7253,3.7253,3.7273,3.7318,3.7318,3.736,3.7331,0,0,0,0,0,0,0,0,0,0,3.729,3.7266,3.7253,3.7253,3.7274,3.7318,3.7318,3.733,3.7333,3.7334,0,3.7336,0,3.7349,3.7363,3.7363,0,0,0,3.7277,3.7264,3.7282,3.7253,3.7274,3.7318,3.7299,3.7332,3.7335,3.7338,3.7337,3.7339,3.735,3.7363,3.7363,3.7361,3.736,0,0,3.7275,3.7257,3.7279,3.7284,3.7278,3.7297,3.73,3.7334,3.733,3.7337,3.734,3.735,3.7363,3.7363,3.7361,3.7361,0,0,0,3.7265,3.7255,3.7272,3.7282,3.7291,3.7299,3.7302,3.7329,3.7336,3.734,3.7351,3.7363,3.7363,3.7361,3.7361,3.7332,0,0,0,3.7264,3.7249,3.7271,3.726,3.729,3.7311,3.7296,3.7334,3.7338,3.7351,3.7363,3.7364,3.7362,3.7361,3.7333,3.7321,0,0,0,3.7252,3.7248,3.7252,3.7259,3.7278,3.7311,3.732,3.7335,3.7344,3.7363,3.7364,3.7362,3.7361,3.7335,3.7323,3.7314,0,0,0,3.7233,3.7226,3.7251,3.7247,3.7277,3.7294,3.732,3.7333,3.7345,3.7363,3.7361,3.7361,3.7335,3.7324,3.7315,3.7302,3.7295,0,0,3.7214,3.7223,3.7222,3.7246,3.7253,3.7288,3.729,3.7319,3.7336,3.7351,3.7351,3.7333,3.7323,3.7314,3.7266,3.7261,0,0,0,3.7209,3.7208,3.7214,3.7225,3.7247,3.7264,3.7294,3.7304,3.7318,3.7341,3.7328,3.7323,3.7318,3.7313,3.7308,3.7304,3.7358,3.7358,3.7358,3.7154,3.7178,3.7177,3.7205,3.7216,3.7247,3.7256,3.7275,3.7296,3.7292,3.7296,3.7265,3.7257,3.7254,3.725,3.7293,3.7292,3.7292,3.7292,3.7126,3.7127,3.7155,3.7164,3.7188,3.7195,3.7223,3.7237,3.7245,3.7264,3.7261,3.7278,3.7247,3.7245,3.729,3.7291,3.7291,3.7291,3.7291,3.7091,3.7096,3.7109,3.7127,3.7137,3.7166,3.7173,3.7195,3.7216,3.7213,3.7218,3.7218,3.722,3.7214,3.7214,3.7214,3.7214,3.7214,3.7213,3.705,3.7066,3.7069,3.7091,3.71,3.7115,3.7144,3.7153,3.7169,3.7184,3.7184,3.7203,3.7241,3.7249,3.7212,3.7212,3.7212,3.7212,3.7213,3.701,3.7022,3.7028,3.7037,3.7063,3.707,3.7099,3.7115,3.7125,3.7127,3.7147,3.7172,3.7183,3.7186,3.7193,3.7144,3.7144,3.7144,3.7144,3.698,3.6988,3.6997,3.701,3.7025,3.7051,3.7053,3.7074,3.7099,3.7106,3.7116,3.7127,3.7131,3.7139,3.7144,3.715,3.7091,3.7091,3.7091,3.6955,3.6966,3.6964,3.699,3.7011,3.7028,3.703,3.7041,3.7072,3.709,3.7111,3.7114,3.7132,3.7137,3.7154,3.7161,3.7173,0,0]}]]